Find Starlink 33880

NORAD ID: 63686 Int'l Des: 2025-085 Owner: SPXS Country: US Constellation: starlink operational
LEOCIRCULAR

Live Position

Loading 3D Globe...

About Starlink 33880

Description loading...

Upcoming Passes

Passes for default location (London). Set your location on the main map for personalized predictions.

Altitude History

Loading altitude history...

Two-Line Element Set

1 63686U 25085Y 26105.54146701 -.00009564 00000-0 -33848-3 0 9996
2 63686 43.0022 182.9955 0001731 281.8238 78.2420 15.27578350 54617
Epoch: Apr 15, 2026 • Age: 12 hours

Current Status

Altitude 485.7 km
Velocity 7.63 km/s
Sub-Earth Point 35.21°N, 99.59°E
Launch Date Apr 28, 2025
Age 0.9 years
Type internet

Technical Details

Classification Payload
Mass 575.00 kg
Dry Mass 530.00 kg
Total Mass 575.00 kg
Length 0.30 m
Diameter 4.10 m
Span 29.00 m
Shape Box + pan
Manufacturer SPXS
Bus Type Starlink V2MO
Phase Status In Orbit
Owner/State SPXS/US

Most Searched